SCP
0 0 -0 -0 0 0 0 0 0 0 0 0 -0 -0 -0 -0 -0 -0 -0 -0 -0 -0 -0 -0 -0 -0 0 0 0 0 0 0
0 -0 -0 0 0 0 0 0 0 0 -0 -0 -0 -0 -0 -0 -0 -0 -0 -0 -0 -0 -0 -0 -0 0 0 0 0 0 0 0
-0 -0 0 0 0 0 0 0 0 -0 -0 -0 -0 -0 -0 -0 -0 -0 -0 -0 -0 -0 -0 -0 0 0 0 0 0 0 0 0
-0 -0 -0 -0 -0 0 -0 -0 -0 -0 -0 -0 -0 -0 -0 -0 -0 -0 -0 -0 -0 -0 -0 0 0 0 0 0 0 0 1 0
-0 -0 -0 -0 -0 -0 -0 0 0 -0 -0 -0 -0 -0 -0 -0 -0 -0 -0 -0 -0 -0 -0 -0 0 0 0 0 0 0 0 0
-0 -0 -0 -0 -0 -0 -0 -0 -0 -0 -0 -0 -0 -0 -0 -0 -0 -0 -0 -0 -0 -0 -0 0 0 0 0 0 0 0 0 0
-0 -0 -0 -0 -0 -0 -0 -0 -0 -0 -0 -0 -0 -0 -0 -0 -0 -0 -0 -0 -0 0 0 0 0 0 0 0 0 0 0 0
0 -0 -0 -0 -0 -0 -0 0 -0 -0 -0 -0 -0 -0 -0 -0 -0 -0 0 0 0 0 0 0 0 0 0 0 0 0 0 0
0 0 0 0 -0 0 0 0 0 0 -0 -0 -0 -0 -0 -0 0 0 0 0 0 0 0 0 0 0 0 0 0 0 0 0
0 0 0 0 0 0 0 0 0 -0 -0 -0 -0 -0 0 0 0 0 0 0 0 0 0 0 0 0 0 0 0 0 0 0
0 0 0 0 0 0 0 0 -0 -0 -0 -0 -0 -0 0 0 0 0 0 0 0 0 0 0 0 0 0 0 0 0 0 0
-0 -0 -0 0 0 0 0 -0 -0 -0 -0 0 0 0 0 0 0 0 0 0 0 0 0 0 0 0 0 0 0 0 0 0
-0 -0 -0 -0 -0 -0 -0 0 0 -0 -0 0 0 0 0 0 0 0 0 0 0 0 0 0 0 0 0 0 0 0 0 0
-0 -0 -0 -0 -0 -0 0 0 0 0 0 0 0 0 0 0 0 0 0 0 0 0 0 0 0 0 0 0 0 0 0 0
-0 -0 -0 -0 -0 -0 0 0 1 1 0 0 0 0 0 0 0 0 0 0 0 0 0 0 0 0 0 0 0 0 0 0
-0 -0 -0 -0 -0 -0 0 0 1 1 0 0 0 0 0 0 0 0 0 0 0 0 0 0 0 0 0 0 0 0 0 0
-0 -0 -0 -0 0 -0 0 1 2 1 0 0 0 0 0 0 0 0 0 0 0 0 0 0 0 0 0 0 0 0 0 0
-0 -0 -0 -0 0 0 1 1 0 0 0 0 0 0 0 0 0 0 0 0 0 0 0 0 0 0 0 0 0 0 0 0
-0 -0 -0 0 0 1 1 3 2 2 1 0 0 0 0 0 0 0 0 0 0 0 0 0 0 0 0 0 0 0 0 0
Wind_Speed_500mb
37 31 26 26 28 30 31 33 34 35 35 36 35 34 32 30 27 26 25 24 22 21 21 20 21 22 21 20 15 8 7 7
34 29 26 28 32 34 37 38 39 40 39 39 38 36 34 31 29 27 25 23 22 20 18 16 16 18 18 12 7 8 5 5
29 31 32 35 37 40 41 42 42 42 42 41 40 37 34 32 30 29 27 25 24 21 17 15 15 14 11 6 4 2 1 6
33 36 39 41 41 41 42 43 43 42 41 40 38 37 35 34 33 31 29 27 25 20 16 16 17 11 4 7 9 6 5 5
35 36 39 41 42 43 44 43 42 41 40 39 38 36 32 33 32 28 26 24 17 15 15 15 13 11 11 12 13 15 11 7
40 39 40 41 42 43 43 42 40 41 39 37 33 29 26 24 21 21 19 17 14 14 13 14 17 11 12 19 21 18 14 18
45 43 41 42 43 43 41 39 39 39 37 33 29 27 22 17 14 12 8 8 10 11 8 12 10 7 9 17 20 19 19 17
44 44 44 42 41 41 40 38 40 38 32 26 27 22 17 10 9 17 8 6 1 5 13 13 4 3 5 12 14 17 21 22
47 43 44 44 42 41 40 37 36 36 28 22 22 18 15 10 8 8 7 5 8 13 15 7 1 6 3 6 12 12 15 20
45 46 48 44 46 44 42 41 37 33 28 24 17 21 15 11 8 9 9 12 17 18 11 3 4 8 5 3 9 8 10 15
49 48 50 47 43 42 43 41 35 31 27 28 23 21 17 14 16 21 21 19 19 14 7 3 2 3 6 6 9 7 7 13
55 51 55 51 50 46 43 40 36 36 33 35 29 21 19 21 24 27 25 22 18 12 7 2 3 3 7 8 8 11 7 7
64 61 57 54 53 52 51 47 40 41 42 39 35 26 29 27 26 31 30 26 17 13 8 3 3 4 6 13 13 17 15 11
67 70 67 62 61 53 55 51 45 43 42 37 33 30 33 34 32 29 28 23 17 16 11 7 7 6 6 13 18 18 20 15
76 74 75 69 61 58 56 60 59 52 46 44 40 39 39 35 32 28 26 22 19 17 12 9 5 5 3 2 13 21 19 18
89 86 85 86 74 70 71 67 65 61 56 54 50 48 40 37 32 26 25 24 23 19 16 14 6 6 8 8 16 27 24 21
105 102 96 93 86 79 79 79 77 68 62 58 56 51 47 41 34 28 25 26 26 23 19 13 7 6 13 16 24 25 20 15
110 114 107 102 94 88 86 82 79 71 67 67 66 61 52 42 30 27 29 29 31 28 23 18 12 9 11 18 23 16 11 12
116 114 113 108 103 98 89 90 85 78 84 83 76 62 54 47 37 33 32 31 33 31 27 22 17 12 8 4 12 16 15 12
Wind_Direction_500mb
168 165 173 168 162 153 146 141 136 133 131 130 128 124 118 111 103 95 88 82 78 77 77 78 77 75 76 81 73 66 40 15
164 162 163 155 148 142 137 133 130 127 126 125 122 117 110 104 98 92 86 81 79 78 79 78 74 71 68 71 126 130 87 31
156 152 149 145 143 140 136 132 129 128 125 121 117 114 110 105 99 93 86 85 84 81 86 84 75 77 74 57 25 3 341 7
155 153 151 147 144 141 138 134 131 129 126 121 118 117 108 101 95 93 88 89 87 83 83 78 68 65 32 14 10 11 357 22
157 156 153 149 147 145 140 138 136 132 127 124 120 118 114 104 99 94 90 92 90 69 62 58 37 10 348 338 345 6 33 65
162 161 157 153 150 147 145 143 141 136 131 129 130 128 127 122 122 105 97 98 79 67 63 34 17 21 19 15 30 48 70 78
167 165 162 160 157 154 151 151 149 148 143 140 140 142 145 141 142 158 143 129 79 56 34 16 20 30 33 38 28 41 49 42
168 169 168 165 163 161 160 160 159 156 149 148 152 158 169 161 154 162 174 149 67 6 349 342 17 128 62 50 45 36 32 32
176 172 170 168 168 167 165 164 164 167 164 151 159 171 169 172 173 216 195 259 283 306 320 314 72 129 108 50 55 37 28 16
178 174 173 171 170 171 166 162 164 168 172 176 168 186 195 209 233 248 265 281 279 287 305 300 106 180 200 112 102 81 33 19
182 182 180 178 174 173 173 176 173 176 179 192 198 204 218 227 270 279 276 278 271 260 243 222 234 143 196 133 146 126 50 39
193 191 192 188 188 186 184 187 189 190 194 205 209 221 221 237 262 274 274 272 264 231 196 192 293 330 204 196 189 149 117 75
200 201 200 196 199 200 197 198 202 204 203 205 216 230 233 249 269 283 277 273 262 225 199 159 166 157 171 204 207 166 160 138
208 205 206 207 208 208 205 206 209 211 214 214 224 238 236 243 263 280 271 264 239 222 210 193 165 159 186 220 209 186 167 150
214 213 213 212 216 215 212 208 204 213 223 228 233 235 238 251 258 259 256 251 227 222 217 204 188 96 29 109 174 189 164 156
218 217 217 216 217 215 211 205 206 214 220 228 231 231 240 247 259 251 242 237 216 207 210 207 215 127 136 139 162 160 148 149
223 220 217 219 219 217 218 217 216 220 225 228 231 236 243 251 250 239 232 228 217 212 203 207 234 174 151 169 177 163 132 130
225 221 218 219 219 217 218 219 220 223 224 227 229 233 239 243 245 231 228 223 216 208 205 201 213 238 154 162 187 203 200 206
226 223 220 220 220 215 218 222 222 228 226 228 230 231 240 240 238 228 228 226 213 209 204 199 203 203 237 168 183 210 233 219
Wind_Speed_850mb
37 31 26 26 28 30 31 33 34 35 35 36 35 34 32 30 27 26 25 24 22 21 21 20 21 22 21 20 15 8 7 7
34 29 26 28 32 34 37 38 39 40 39 39 38 36 34 31 29 27 25 23 22 20 18 16 16 18 18 12 7 8 5 5
29 31 32 35 37 40 41 42 42 42 42 41 40 37 34 32 30 29 27 25 24 21 17 15 15 14 11 6 4 2 1 6
33 36 39 41 41 41 42 43 43 42 41 40 38 37 35 34 33 31 29 27 25 20 16 16 17 11 4 7 9 6 5 5
35 36 39 41 42 43 44 43 42 41 40 39 38 36 32 33 32 28 26 24 17 15 15 15 13 11 11 12 13 15 11 7
40 39 40 41 42 43 43 42 40 41 39 37 33 29 26 24 21 21 19 17 14 14 13 14 17 11 12 19 21 18 14 18
45 43 41 42 43 43 41 39 39 39 37 33 29 27 22 17 14 12 8 8 10 11 8 12 10 7 9 17 20 19 19 17
44 44 44 42 41 41 40 38 40 38 32 26 27 22 17 10 9 17 8 6 1 5 13 13 4 3 5 12 14 17 21 22
47 43 44 44 42 41 40 37 36 36 28 22 22 18 15 10 8 8 7 5 8 13 15 7 1 6 3 6 12 12 15 20
45 46 48 44 46 44 42 41 37 33 28 24 17 21 15 11 8 9 9 12 17 18 11 3 4 8 5 3 9 8 10 15
49 48 50 47 43 42 43 41 35 31 27 28 23 21 17 14 16 21 21 19 19 14 7 3 2 3 6 6 9 7 7 13
55 51 55 51 50 46 43 40 36 36 33 35 29 21 19 21 24 27 25 22 18 12 7 2 3 3 7 8 8 11 7 7
64 61 57 54 53 52 51 47 40 41 42 39 35 26 29 27 26 31 30 26 17 13 8 3 3 4 6 13 13 17 15 11
67 70 67 62 61 53 55 51 45 43 42 37 33 30 33 34 32 29 28 23 17 16 11 7 7 6 6 13 18 18 20 15
76 74 75 69 61 58 56 60 59 52 46 44 40 39 39 35 32 28 26 22 19 17 12 9 5 5 3 2 13 21 19 18
89 86 85 86 74 70 71 67 65 61 56 54 50 48 40 37 32 26 25 24 23 19 16 14 6 6 8 8 16 27 24 21
105 102 96 93 86 79 79 79 77 68 62 58 56 51 47 41 34 28 25 26 26 23 19 13 7 6 13 16 24 25 20 15
110 114 107 102 94 88 86 82 79 71 67 67 66 61 52 42 30 27 29 29 31 28 23 18 12 9 11 18 23 16 11 12
116 114 113 108 103 98 89 90 85 78 84 83 76 62 54 47 37 33 32 31 33 31 27 22 17 12 8 4 12 16 15 12
Wind_Direction_850mb
168 165 173 168 162 153 146 141 136 133 131 130 128 124 118 111 103 95 88 82 78 77 77 78 77 75 76 81 73 66 40 15
164 162 163 155 148 142 137 133 130 127 126 125 122 117 110 104 98 92 86 81 79 78 79 78 74 71 68 71 126 130 87 31
156 152 149 145 143 140 136 132 129 128 125 121 117 114 110 105 99 93 86 85 84 81 86 84 75 77 74 57 25 3 341 7
155 153 151 147 144 141 138 134 131 129 126 121 118 117 108 101 95 93 88 89 87 83 83 78 68 65 32 14 10 11 357 22
157 156 153 149 147 145 140 138 136 132 127 124 120 118 114 104 99 94 90 92 90 69 62 58 37 10 348 338 345 6 33 65
162 161 157 153 150 147 145 143 141 136 131 129 130 128 127 122 122 105 97 98 79 67 63 34 17 21 19 15 30 48 70 78
167 165 162 160 157 154 151 151 149 148 143 140 140 142 145 141 142 158 143 129 79 56 34 16 20 30 33 38 28 41 49 42
168 169 168 165 163 161 160 160 159 156 149 148 152 158 169 161 154 162 174 149 67 6 349 342 17 128 62 50 45 36 32 32
176 172 170 168 168 167 165 164 164 167 164 151 159 171 169 172 173 216 195 259 283 306 320 314 72 129 108 50 55 37 28 16
178 174 173 171 170 171 166 162 164 168 172 176 168 186 195 209 233 248 265 281 279 287 305 300 106 180 200 112 102 81 33 19
182 182 180 178 174 173 173 176 173 176 179 192 198 204 218 227 270 279 276 278 271 260 243 222 234 143 196 133 146 126 50 39
193 191 192 188 188 186 184 187 189 190 194 205 209 221 221 237 262 274 274 272 264 231 196 192 293 330 204 196 189 149 117 75
200 201 200 196 199 200 197 198 202 204 203 205 216 230 233 249 269 283 277 273 262 225 199 159 166 157 171 204 207 166 160 138
208 205 206 207 208 208 205 206 209 211 214 214 224 238 236 243 263 280 271 264 239 222 210 193 165 159 186 220 209 186 167 150
214 213 213 212 216 215 212 208 204 213 223 228 233 235 238 251 258 259 256 251 227 222 217 204 188 96 29 109 174 189 164 156
218 217 217 216 217 215 211 205 206 214 220 228 231 231 240 247 259 251 242 237 216 207 210 207 215 127 136 139 162 160 148 149
223 220 217 219 219 217 218 217 216 220 225 228 231 236 243 251 250 239 232 228 217 212 203 207 234 174 151 169 177 163 132 130
225 221 218 219 219 217 218 219 220 223 224 227 229 233 239 243 245 231 228 223 216 208 205 201 213 238 154 162 187 203 200 206
226 223 220 220 220 215 218 222 222 228 226 228 230 231 240 240 238 228 228 226 213 209 204 199 203 203 237 168 183 210 233 219